User: anonymous   Login
Location: Brno
(49.2000°N, 16.6330°E)
Time: 00:16:56
(UTC+02:00)
Language:

RESURS DK-1 - Orbit

View from above orbital plane
View from above orbital plane
View from above satellite
View from above satellite

Ground track
Ground track

The orbit data is extracted from the following two-line orbital elements,

1 29228U 06021A   16210.46150023  .00000123  00000-0  16768-4 0  9991
2 29228  69.9341 201.5799 0002387 154.3872 205.7407 15.01947946559493
Epoch (UTC): 28 July 2016 11:04:33
Eccentricity: 0.0002387
inclination: 69.9341°
perigee height: 559 km
apogee height: 562 km
right ascension of ascending node: 201.5799°
argument of perigee: 154.3872°
revolutions per day: 15.01947946
mean anomaly at epoch: 205.7407°
orbit number at epoch: 55949

The dashed part of the orbit path shows where the satellite is in the earth's shadow,  

DLR